Regional Weather Roundup
Issued by NWS

Home | Current Version | Previous Version | Text Only | Print | Product List | Glossary On
Versions: 1 2 3 4 5 6 7 8 9 10 11 12 13 14 15 16 17 18 19 20 21 22 23 24 25 26 27 28 29 30 31 32 33 34 35 36 37 38 39 40 41 42 43 44 45 46 47 48 49 50
000
ASUS43 KLMK 050610
RWRKY
KENTUCKY REGIONAL WEATHER ROUNDUP
NATIONAL WEATHER SERVICE LOUISVILLE KY
200 AM EDT SUN JUL 05 2015

NOTE "FAIR" INDICATES FEW OR NO CLOUDS BELOW 12,000 FEET
WITH NO SIGNIFICANT WEATHER AND/OR OBSTRUCTIONS TO VISIBILITY.

KYZ001>023-026-027-061>063-070>075-050700-
WESTERN AND SOUTH CENTRAL KENTUCKY

CITY           SKY/WX    TMP DP  RH WIND       PRES   REMARKS
PADUCAH        CLOUDY    69  67  93 CALM      30.02R FOG
HENDERSON      CLOUDY    70  66  88 CALM      30.00S
OWENSBORO      CLOUDY    74  70  87 CALM      30.01F FOG
HOPKINSVILLE   CLOUDY    71  69  94 W5        30.02R
BOWLING GREEN  CLOUDY    73  68  84 S5        30.01F
GLASGOW        CLOUDY    71  69  95 S3        30.02S
$$

KYZ024-025-028>034-038-045-046-053-050700-
NORTH CENTRAL KENTUCKY

CITY           SKY/WX    TMP DP  RH WIND       PRES   REMARKS
LOUISVILLE/SDF CLOUDY    75  67  76 E6        30.02F
LOUISVILLE/LOU CLOUDY    74  67  78 CALM      30.03F
FORT KNOX      DRIZZLE   72  68  88 NE5       30.01F
$$

KYZ035>037-039>044-047>052-055>060-089>105-050700-
NORTHEAST KENTUCKY

CITY           SKY/WX    TMP DP  RH WIND       PRES   REMARKS
LEXINGTON      CLOUDY    72  66  81 E6        30.05F
COVINGTON      CLOUDY    70  59  68 E3        30.07R
FRANKFORT      CLOUDY    70  66  87 NE3       30.04F FOG
$$

KYZ054-064>069-076>088-106>120-050700-
SOUTHEAST KENTUCKY

CITY           SKY/WX    TMP DP  RH WIND       PRES   REMARKS
JACKSON        CLOUDY    69  67  93 CALM      30.07F
LONDON         CLOUDY    71  65  81 CALM      30.05F
SOMERSET       CLOUDY    68  68 100 CALM      30.05F
MIDDLESBORO    TSTM      69  69  98 CALM      30.07S
MONTICELLO     CLOUDY    69  69 100 CALM      30.07F FOG
$$




USA.gov is the U.S. government's official web portal to all federal, state and local government web resources and services.